When you browse on this site, cookies collect data to enhance your experience and personalize the content and advertising you see.
Visit our Privacy Policy to learn more. By continuing to use the site, you agree to this use of cookies and data.
  • In France
  • List of Countries
  • For 7 days
  • Water Temperature
  • Satellite Maps
  • Weather Map
  • Weather Widgets
  • user-avatar
    Login

    Hourly Weather Boragangechuv

    Today, 11 December, Tuesday

    Time Temperature Precipitation Wind Pressure Humidity
    00:00 +8°C° 0 mm 1 mps 753 mmHg 82%
    01:00 +8°C° 0 mm 1 mps 753 mmHg 81%
    02:00 +8°C° 0 mm 1 mps 753 mmHg 80%
    03:00 +7°C° 0 mm 2 mps 753 mmHg 84%
    04:00 +7°C° 0 mm 2 mps 753 mmHg 83%
    05:00 +7°C° 0 mm 2 mps 753 mmHg 81%
    06:00 +7°C° 0 mm 2 mps 753 mmHg 80%
    07:00 +8°C° 0 mm 2 mps 752 mmHg 79%
    08:00 +8°C° 0 mm 2 mps 752 mmHg 77%
    09:00 +9°C° 0 mm 1 mps 752 mmHg 75%
    10:00 +11°C° 0 mm 1 mps 751 mmHg 71%
    11:00 +12°C° 0 mm 1 mps 751 mmHg 66%
    12:00 +13°C° 0 mm 1 mps 750 mmHg 62%
    13:00 +13°C° 0 mm 1 mps 750 mmHg 62%
    14:00 +13°C° 0 mm 2 mps 750 mmHg 61%
    15:00 +12°C° 0 mm 3 mps 749 mmHg 61%
    16:00 +11°C° 0 mm 3 mps 749 mmHg 64%
    17:00 +11°C° 0 mm 3 mps 749 mmHg 68%
    18:00 +10°C° 0 mm 4 mps 748 mmHg 71%
    19:00 +10°C° 0 mm 4 mps 748 mmHg 70%
    20:00 +10°C° 0 mm 4 mps 748 mmHg 69%
    21:00 +11°C° 0 mm 4 mps 748 mmHg 67%
    22:00 +10°C° 0 mm 4 mps 749 mmHg 72%
    23:00 +8°C° 0 mm 4 mps 749 mmHg 76%

    Tomorrow, 12 December, Wednesday

    Time Temperature Precipitation Wind Pressure Humidity
    00:00 +7°C° 0 mm 4 mps 750 mmHg 81%
    01:00 +8°C° 0 mm 4 mps 750 mmHg 78%
    02:00 +8°C° 0 mm 4 mps 751 mmHg 74%
    03:00 +10°C° 0 mm 3 mps 751 mmHg 71%
    04:00 +9°C° 0 mm 3 mps 752 mmHg 71%
    05:00 +9°C° 0 mm 3 mps 753 mmHg 71%
    06:00 +9°C° 0 mm 2 mps 753 mmHg 71%
    07:00 +9°C° 0 mm 2 mps 753 mmHg 70%
    08:00 +10°C° 0 mm 2 mps 753 mmHg 69%
    09:00 +10°C° 0 mm 2 mps 754 mmHg 68%
    10:00 +12°C° 0 mm 2 mps 753 mmHg 67%
    11:00 +12°C° 0 mm 2 mps 753 mmHg 65%
    12:00 +13°C° 0 mm 2 mps 752 mmHg 63%
    13:00 +13°C° 0 mm 2 mps 752 mmHg 65%
    14:00 +12°C° 0 mm 2 mps 752 mmHg 68%
    15:00 +12°C° 0 mm 2 mps 752 mmHg 70%
    16:00 +10°C° 0.1 mm 2 mps 752 mmHg 75%
    17:00 +9°C° 0.1 mm 2 mps 752 mmHg 80%
    18:00 +10°C° 0.1 mm 1 mps 752 mmHg 85%
    19:00 +9°C° 0 mm 1 mps 752 mmHg 88%
    20:00 +9°C° 0 mm 1 mps 752 mmHg 90%
    21:00 +8°C° 0 mm 1 mps 752 mmHg 93%
    22:00 +8°C° 0 mm 1 mps 752 mmHg 93%
    23:00 +8°C° 0 mm 1 mps 752 mmHg 93%

    Day after tomorrow, 13 December, Thursday

    Time Temperature Precipitation Wind Pressure Humidity
    00:00 +8°C° 0 mm 1 mps 752 mmHg 93%
    01:00 +8°C° 0.1 mm 1 mps 752 mmHg 93%
    02:00 +8°C° 0.1 mm 1 mps 752 mmHg 93%
    03:00 +8°C° 0.1 mm 1 mps 751 mmHg 93%
    04:00 +7°C° 0.1 mm 1 mps 752 mmHg 93%
    05:00 +6°C° 0.1 mm 2 mps 752 mmHg 93%
    06:00 +6°C° 0.1 mm 2 mps 752 mmHg 94%
    07:00 +6°C° 0.2 mm 2 mps 752 mmHg 92%
    08:00 +7°C° 0.2 mm 3 mps 753 mmHg 91%
    09:00 +7°C° 0.2 mm 3 mps 753 mmHg 89%
    10:00 +7°C° 0.3 mm 3 mps 754 mmHg 88%
    11:00 +6°C° 0.3 mm 4 mps 754 mmHg 87%
    12:00 +6°C° 0.3 mm 5 mps 754 mmHg 86%
    13:00 +6°C° 0.4 mm 5 mps 755 mmHg 85%
    14:00 +6°C° 0.4 mm 5 mps 755 mmHg 85%
    15:00 +6°C° 0.4 mm 5 mps 756 mmHg 84%
    16:00 +6°C° 0.4 mm 5 mps 757 mmHg 84%
    17:00 +5°C° 0.4 mm 5 mps 758 mmHg 84%
    18:00 +5°C° 0.4 mm 5 mps 759 mmHg 84%
    19:00 +5°C° 0.2 mm 5 mps 759 mmHg 84%
    20:00 +5°C° 0.2 mm 4 mps 760 mmHg 85%
    21:00 +5°C° 0.2 mm 4 mps 760 mmHg 85%
    22:00 +5°C° 0.1 mm 4 mps 760 mmHg 85%
    23:00 +5°C° 0.1 mm 3 mps 761 mmHg 86%

    14 December, Friday

    Time Temperature Precipitation Wind Pressure Humidity
    00:00 +4°C° 0.1 mm 3 mps 761 mmHg 86%
    01:00 +4°C° 0.1 mm 3 mps 761 mmHg 87%
    02:00 +4°C° 0.1 mm 3 mps 762 mmHg 87%
    03:00 +4°C° 0.1 mm 3 mps 762 mmHg 87%
    04:00 +4°C° 0.1 mm 3 mps 762 mmHg 87%
    05:00 +4°C° 0.1 mm 3 mps 762 mmHg 87%
    06:00 +4°C° 0.1 mm 3 mps 763 mmHg 87%
    07:00 +5°C° 0 mm 2 mps 763 mmHg 85%
    08:00 +5°C° 0 mm 2 mps 763 mmHg 82%
    09:00 +5°C° 0 mm 2 mps 763 mmHg 80%
    10:00 +6°C° 0 mm 2 mps 762 mmHg 74%
    11:00 +7°C° 0 mm 2 mps 762 mmHg 68%
    12:00 +8°C° 0 mm 2 mps 762 mmHg 62%
    13:00 +7°C° 0 mm 2 mps 762 mmHg 62%
    14:00 +7°C° 0 mm 2 mps 762 mmHg 62%
    15:00 +7°C° 0 mm 2 mps 762 mmHg 62%
    16:00 +8°C° 0.1 mm 1 mps 762 mmHg 64%
    17:00 +7°C° 0.1 mm 1 mps 762 mmHg 66%
    18:00 +7°C° 0.1 mm 1 mps 763 mmHg 69%
    19:00 +6°C° 0.1 mm 1 mps 763 mmHg 70%
    20:00 +6°C° 0.1 mm 1 mps 763 mmHg 70%
    21:00 +6°C° 0.1 mm 1 mps 763 mmHg 71%
    22:00 +6°C° 0.1 mm 1 mps 763 mmHg 72%
    23:00 +5°C° 0.1 mm 0 mps 763 mmHg 73%

    15 December, Saturday

    Time Temperature Precipitation Wind Pressure Humidity
    00:00 +4°C° 0.1 mm 0 mps 763 mmHg 74%
    01:00 +4°C° 0.1 mm 0 mps 763 mmHg 75%
    02:00 +4°C° 0.1 mm 0 mps 764 mmHg 75%
    03:00 +4°C° 0.1 mm 0 mps 764 mmHg 76%
    04:00 +4°C° 0 mm 0 mps 764 mmHg 76%
    05:00 +4°C° 0 mm 0 mps 764 mmHg 75%
    06:00 +3°C° 0 mm 0 mps 764 mmHg 75%
    07:00 +4°C° 0 mm 0 mps 765 mmHg 72%
    08:00 +4°C° 0 mm 0 mps 765 mmHg 69%
    09:00 +5°C° 0 mm 0 mps 765 mmHg 66%
    10:00 +6°C° 0 mm 0 mps 765 mmHg 62%
    11:00 +8°C° 0 mm 1 mps 765 mmHg 59%
    12:00 +9°C° 0 mm 1 mps 765 mmHg 55%
    13:00 +9°C° 0 mm 1 mps 765 mmHg 55%
    14:00 +9°C° 0 mm 1 mps 765 mmHg 55%
    15:00 +9°C° 0 mm 1 mps 765 mmHg 55%
    16:00 +8°C° 0 mm 1 mps 766 mmHg 59%
    17:00 +7°C° 0 mm 1 mps 766 mmHg 63%
    18:00 +6°C° 0 mm 1 mps 767 mmHg 67%
    19:00 +6°C° 0 mm 1 mps 767 mmHg 67%
    20:00 +5°C° 0 mm 1 mps 767 mmHg 67%
    21:00 +4°C° 0 mm 0 mps 767 mmHg 68%
    22:00 +5°C° 0 mm 1 mps 767 mmHg 68%
    23:00 +5°C° 0 mm 1 mps 767 mmHg 68%

    16 December, Sunday

    Time Temperature Precipitation Wind Pressure Humidity
    00:00 +4°C° 0 mm 1 mps 767 mmHg 68%
    01:00 +4°C° 0 mm 1 mps 767 mmHg 69%
    02:00 +4°C° 0 mm 1 mps 767 mmHg 69%
    03:00 +4°C° 0 mm 1 mps 767 mmHg 70%
    04:00 +3°C° 0 mm 1 mps 768 mmHg 72%
    05:00 +2°C° 0 mm 2 mps 768 mmHg 74%
    06:00 +2°C° 0 mm 2 mps 768 mmHg 76%
    07:00 +2°C° 0 mm 2 mps 768 mmHg 75%
    08:00 +3°C° 0 mm 2 mps 768 mmHg 73%
    09:00 +3°C° 0 mm 2 mps 768 mmHg 72%
    10:00 +3°C° 0 mm 3 mps 767 mmHg 69%
    11:00 +5°C° 0 mm 3 mps 767 mmHg 66%
    12:00 +7°C° 0 mm 3 mps 767 mmHg 63%
    13:00 +6°C° 0 mm 4 mps 767 mmHg 65%
    14:00 +6°C° 0 mm 4 mps 766 mmHg 68%
    15:00 +6°C° 0 mm 4 mps 766 mmHg 70%
    16:00 +5°C° 0 mm 4 mps 766 mmHg 74%
    17:00 +4°C° 0 mm 4 mps 767 mmHg 78%
    18:00 +4°C° 0 mm 4 mps 767 mmHg 82%
    19:00 +4°C° 0 mm 4 mps 767 mmHg 83%
    20:00 +4°C° 0 mm 4 mps 767 mmHg 83%
    21:00 +4°C° 0 mm 4 mps 767 mmHg 83%
    22:00 +4°C° 0 mm 4 mps 767 mmHg 83%
    23:00 +4°C° 0 mm 4 mps 766 mmHg 83%
    Show more